COSMOS 2251 DEB, 36533

Orbit data source: Space-Track

COSMOS 2251 DEB, 36533 is space debris in LEO originally from a launch on Wed, 16 Jun 1993 UTC launched from the Plesetsk Missile And Space Complex (PKMTR). The debris from Iridium 33, an American commercial communications satellite, has been tracked extensively since its accidental collision with the defunct Russian satellite Cosmos 2251 in 2009. This event, occurring at high speed in low Earth orbit (LEO), generated thousands of pieces of space debris, significantly increasing the risk of further collisions. The Iridium 33 debris cloud has impacted space traffic management and orbital debris mitigation strategies, making it a subject of ongoing study in space situational awareness.

Loading next visibility...
Identifier
36533, 1993-036BCT
Orbit
LEO
Country
Flag of CISCIS
Related business
Manufacturer
Unknown
Mission
Spacecraft
Bus & Motor
Unknown
Mass
Unknown
Launch date (UTC)
1993-06-16 (33 years ago)
Launch vehicle
Unknown
Launch site
Plesetsk Missile And Space Complex (PKMTR)
Object type
Payload
Rocket body
Debris
Shape & HBR
Unknown shape, 0.1 m
Radar Cross Section
Small (<0.1 m²)

Expand to show TLE details & history
Last TLE update: 16 hours ago

TLE from 16 hours ago
0 COSMOS 2251 DEB
1 36533U 93036BCT 26033.94012036  .00001416  00000-0  36742-3 0  9997
2 36533  74.0123  16.6617 0047317 155.0120 205.3346 14.50029802852416
Epoch: 2026-02-02T22:33Z
TLE epoch observation values (Epoch: 2026-02-02T22:33:46.399Z)
Latitude
-0°
Longitude
-94.90983°
Altitude
758.592 km
Speed
7.459 km/s
True Right ascension
01h 06m 38s
True Declination
0° 00' 00"
Sunlit
Object was in daylight at epoch
Visualization orbit readout
Latitude
Unknown
Longitude
Unknown
Altitude
Unknown
Speed
Unknown
Apparent Right ascension
Unknown
Apparent Declination
Unknown
Sunlit
N/A
Visualization observer readout
Local Sidereal Time
16:33:17
Azimuth
Unknown
Elevation
Unknown
Doppler factor
Unknown
Orbital elements
Apogee altitude
756.763 km
Perigee altitude
689.56 km
Semi-major axis
7,101.299 km
Eccentricity
0.00473
Inclination
74.0123°
RAAN
16.6617°
Arg. of periapsis
155.012°
True anomaly
205.10382°
Mean anomaly
205.3346°
Eccentric anomaly
205.21909°
Mean motion
3.62691 °/min
Orbital period
99.26 mins
BSTAR
0.00036742
Loading maneuver chart data...
Computing Atmospheric mass density...
Loading historical data...
Loading historical data...
Loading historical data...
Loading historical data...
Loading historical data...
Loading historical data...
Loading historical data...

Documentation

Showing up to 5 results
|